IK6IHU-3 Weather Reports


Display with metric or nautical units.
time (UTC)temp
F
wind
direction
speed
MPH
gust
MPH
rain 1hr
in
rain 24hr
in
rain mn
in
humidity
%
barometer
mb
20260504021620 60 287 2.0 4.0 0.00 0.00 0.00 45 1016.9
20260504021520 60 287 2.0 7.0 0.00 0.00 0.00 45 1017.0
20260504021420 60 288 2.0 7.0 0.00 0.00 0.00 46 1017.0
20260504021320 60 289 3.0 7.0 0.00 0.00 0.00 45 1016.8
20260504021219 60 290 2.0 7.0 0.00 0.00 0.00 45 1017.0
20260504021119 60 291 2.0 7.0 0.00 0.00 0.00 45 1016.9
20260504021019 61 292 2.0 7.0 0.00 0.00 0.00 44 1017.0
20260504020920 61 292 2.0 7.0 0.00 0.00 0.00 44 1016.9
20260504020819 61 291 3.0 7.0 0.00 0.00 0.00 44 1016.9
20260504020719 61 291 3.0 7.0 0.00 0.00 0.00 44 1017.0
20260504020620 61 291 4.0 7.0 0.00 0.00 0.00 44 1017.0
20260504020520 61 291 4.0 7.0 0.00 0.00 0.00 44 1017.1
20260504020420 61 292 4.0 7.0 0.00 0.00 0.00 44 1017.1
20260504020319 60 292 3.0 6.0 0.00 0.00 0.00 44 1017.0
20260504020219 60 292 3.0 6.0 0.00 0.00 0.00 45 1017.0
20260504020120 60 292 3.0 6.0 0.00 0.00 0.00 45 1016.9
20260504020020 60 292 2.0 6.0 0.00 0.00 0.00 45 1017.1
20260504015920 61 292 2.0 6.0 0.00 0.00 0.00 45 1017.0
20260504015819 61 294 2.0 6.0 0.00 0.00 0.00 44 1016.9
20260504015720 61 294 2.0 6.0 0.00 0.00 0.00 44 1017.1
20260504015620 60 294 4.0 6.0 0.00 0.00 0.00 45 1016.8
20260504015519 60 294 3.0 4.0 0.00 0.00 0.00 45 1017.0
20260504015420 60 292 2.0 4.0 0.00 0.00 0.00 45 1016.8
20260504015319 60 292 3.0 4.0 0.00 0.00 0.00 46 1016.9
20260504015220 60 292 4.0 4.0 0.00 0.00 0.00 46 1016.9
20260504015120 60 292 3.0 4.0 0.00 0.00 0.00 46 1017.0
20260504015020 61 291 1.0 4.0 0.00 0.00 0.00 44 1016.8
20260504014920 61 291 1.0 4.0 0.00 0.00 0.00 44 1017.0
20260504014819 61 289 2.0 4.0 0.00 0.00 0.00 45 1016.7
20260504014720 60 287 2.0 2.0 0.00 0.00 0.00 45 1016.8
20260504014620 60 287 0.0 4.0 0.00 0.00 0.00 45 1017.0
20260504014520 60 288 0.0 4.0 0.00 0.00 0.00 45 1016.9
20260504014419 60 288 0.0 4.0 0.00 0.00 0.00 45 1016.7
20260504014320 60 289 1.0 4.0 0.00 0.00 0.00 46 1016.9
20260504014219 60 289 1.0 4.0 0.00 0.00 0.00 46 1016.9
20260504014119 60 289 1.0 4.0 0.00 0.00 0.00 46 1017.0
20260504014019 61 290 0.0 4.0 0.00 0.00 0.00 46 1016.7
20260504013919 61 290 1.0 4.0 0.00 0.00 0.00 45 1016.9
20260504013819 61 291 1.0 4.0 0.00 0.00 0.00 45 1016.9
20260504013719 61 292 2.0 4.0 0.00 0.00 0.00 45 1016.9
20260504013620 61 292 2.0 4.0 0.00 0.00 0.00 45 1017.0
20260504013520 61 291 4.0 4.0 0.00 0.00 0.00 47 1017.0
20260504013420 61 290 4.0 4.0 0.00 0.00 0.00 47 1017.0
20260504013320 61 287 4.0 4.0 0.00 0.00 0.00 47 1017.1
20260504013219 61 286 3.0 4.0 0.00 0.00 0.00 46 1016.9
20260504013120 61 284 2.0 4.0 0.00 0.00 0.00 46 1016.9
20260504013019 61 280 2.0 2.0 0.00 0.00 0.00 46 1017.0
20260504012919 61 276 1.0 2.0 0.00 0.00 0.00 46 1016.8
20260504012819 61 275 0.0 2.0 0.00 0.00 0.00 46 1017.0
20260504012720 61 278 0.0 2.0 0.00 0.00 0.00 46 1016.9
20260504012619 61 281 0.0 2.0 0.00 0.00 0.00 46 1016.8
20260504012519 61 285 0.0 2.0 0.00 0.00 0.00 46 1016.7
20260504012419 61 288 1.0 2.0 0.00 0.00 0.00 45 1016.8
20260504012320 61 292 0.0 2.0 0.00 0.00 0.00 46 1016.8
20260504012219 61 292 0.0 2.0 0.00 0.00 0.00 46 1016.7
20260504012120 61 292 0.0 2.0 0.00 0.00 0.00 46 1016.9
20260504012020 61 292 0.0 2.0 0.00 0.00 0.00 45 1016.9
20260504011919 61 292 0.0 2.0 0.00 0.00 0.00 45 1016.8
20260504011819 61 292 0.0 4.0 0.00 0.00 0.00 45 1016.8
20260504011719 61 292 1.0 4.0 0.00 0.00 0.00 45 1016.7
20260504011620 61 292 2.0 4.0 0.00 0.00 0.00 45 1016.7
20260504011520 61 292 1.0 4.0 0.00 0.00 0.00 45 1016.8
20260504011419 61 292 0.0 4.0 0.00 0.00 0.00 45 1016.6
20260504011319 61 292 0.0 4.0 0.00 0.00 0.00 45 1016.8
20260504011219 61 292 1.0 4.0 0.00 0.00 0.00 45 1016.8
20260504011119 61 292 1.0 4.0 0.00 0.00 0.00 46 1016.7
20260504011020 61 292 2.0 4.0 0.00 0.00 0.00 47 1016.7
20260504010919 61 292 2.0 4.0 0.00 0.00 0.00 47 1017.0
20260504010820 61 292 2.0 4.0 0.00 0.00 0.00 48 1016.6
20260504010719 60 292 2.0 4.0 0.00 0.00 0.00 48 1016.7
20260504010620 60 292 2.0 4.0 0.00 0.00 0.00 49 1016.7
20260504010520 60 292 2.0 4.0 0.00 0.00 0.00 49 1016.7
20260504010420 60 292 2.0 4.0 0.00 0.00 0.00 49 1016.8
20260504010319 60 292 2.0 4.0 0.00 0.00 0.00 50 1016.6
20260504010219 60 292 2.0 4.0 0.00 0.00 0.00 51 1016.8
20260504010119 60 292 2.0 4.0 0.00 0.00 0.00 51 1016.8
20260504010019 60 292 2.0 2.0 0.00 0.00 0.00 50 1016.8
20260504005919 60 292 2.0 2.0 0.00 0.00 0.00 50 1016.7
20260504005820 60 294 2.0 2.0 0.00 0.00 0.00 51 1016.7
20260504005720 60 298 2.0 2.0 0.00 0.00 0.00 51 1016.6
20260504005620 60 298 2.0 2.0 0.00 0.00 0.00 51 1016.8
20260504005519 61 298 0.0 2.0 0.00 0.00 0.00 50 1016.8
20260504005420 61 299 0.0 4.0 0.00 0.00 0.00 49 1016.7
20260504005319 61 300 0.0 4.0 0.00 0.00 0.00 49 1016.7
20260504005219 62 299 1.0 4.0 0.00 0.00 0.00 48 1016.7
20260504005119 62 299 1.0 4.0 0.00 0.00 0.00 48 1016.7
20260504005020 62 298 1.0 4.0 0.00 0.00 0.00 49 1016.7
20260504004919 62 298 2.0 4.0 0.00 0.00 0.00 48 1016.7
20260504004820 62 297 2.0 4.0 0.00 0.00 0.00 48 1016.7
20260504004719 62 295 2.0 4.0 0.00 0.00 0.00 48 1016.7
20260504004619 62 295 2.0 4.0 0.00 0.00 0.00 48 1017.0
20260504004519 62 294 2.0 4.0 0.00 0.00 0.00 48 1016.7
20260504004419 62 293 2.0 4.0 0.00 0.00 0.00 48 1016.8
20260504004320 62 292 2.0 4.0 0.00 0.00 0.00 49 1016.7
20260504004220 62 292 2.0 4.0 0.00 0.00 0.00 49 1016.6
20260504004120 62 292 2.0 4.0 0.00 0.00 0.00 49 1016.6
20260504004019 62 292 2.0 4.0 0.00 0.00 0.00 49 1016.7
20260504003919 61 292 2.0 4.0 0.00 0.00 0.00 49 1016.7
20260504003819 61 292 2.0 4.0 0.00 0.00 0.00 49 1016.8
20260504003720 61 292 3.0 4.0 0.00 0.00 0.00 49 1016.8
20260504003620 61 292 2.0 4.0 0.00 0.00 0.00 50 1016.8
20260504003519 61 292 3.0 4.0 0.00 0.00 0.00 50 1016.6
20260504003419 61 292 3.0 4.0 0.00 0.00 0.00 50 1016.7
20260504003319 61 292 2.0 4.0 0.00 0.00 0.00 50 1016.9
20260504003219 61 292 2.0 4.0 0.00 0.00 0.00 50 1016.7
20260504003119 61 292 2.0 4.0 0.00 0.00 0.00 50 1016.8
20260504003020 61 292 2.0 4.0 0.00 0.00 0.00 50 1016.9
20260504002920 61 292 2.0 4.0 0.00 0.00 0.00 50 1016.7
20260504002819 61 292 2.0 4.0 0.00 0.00 0.00 50 1016.6
20260504002719 61 292 3.0 4.0 0.00 0.00 0.00 50 1016.7
20260504002620 61 292 2.0 4.0 0.00 0.00 0.00 50 1016.6
20260504002519 61 292 2.0 2.0 0.00 0.00 0.00 49 1016.8
20260504002419 61 292 2.0 2.0 0.00 0.00 0.00 49 1016.7
20260504002319 61 292 2.0 2.0 0.00 0.00 0.00 49 1016.8
20260504002219 60 292 2.0 2.0 0.00 0.00 0.00 49 1016.7
20260504002120 60 292 2.0 2.0 0.00 0.00 0.00 50 1016.9
20260504002019 60 292 2.0 4.0 0.00 0.00 0.00 50 1017.0
20260504001919 61 292 0.0 4.0 0.00 0.00 0.00 50 1016.7
20260504001820 61 292 0.0 4.0 0.00 0.00 0.00 50 1016.7
20260504001719 61 294 0.0 4.0 0.00 0.00 0.00 49 1016.8
20260504001620 61 296 0.0 4.0 0.00 0.00 0.00 49 1016.8
20260504001520 61 298 2.0 4.0 0.00 0.00 0.00 49 1016.8
20260504001419 61 300 2.0 4.0 0.00 0.00 0.00 49 1016.9
20260504001319 61 302 2.0 4.0 0.00 0.00 0.00 49 1016.7
20260504001220 61 304 2.0 4.0 0.00 0.00 0.00 48 1016.9
20260504001119 61 306 2.0 4.0 0.00 0.00 0.00 49 1016.8
20260504001019 61 309 2.0 4.0 0.00 0.00 0.00 49 1017.3
20260504000919 61 311 2.0 4.0 0.00 0.00 0.00 49 1016.9
20260504000819 61 310 2.0 4.0 0.00 0.00 0.00 50 1016.9
20260504000719 60 308 2.0 4.0 0.00 0.00 0.00 51 1016.8
20260504000620 60 307 2.0 4.0 0.00 0.00 0.00 51 1017.0
20260504000519 60 304 2.0 4.0 0.00 0.00 0.00 51 1016.9
20260504000419 60 302 2.0 4.0 0.00 0.00 0.00 51 1017.0
20260504000319 60 300 2.0 4.0 0.00 0.00 0.00 51 1016.9
20260504000220 60 298 2.0 4.0 0.00 0.00 0.00 51 1016.8
20260504000119 60 297 2.0 4.0 0.00 0.00 0.00 51 1016.7
20260504000020 60 295 2.0 4.0 0.00 0.00 0.00 51 1017.0
20260503235919 60 294 2.0 4.0 0.00 0.00 0.00 51 1016.9
20260503235819 60 294 3.0 4.0 0.00 0.00 0.00 52 1016.7
20260503235719 60 294 4.0 4.0 0.00 0.00 0.00 52 1017.0
20260503235620 60 293 4.0 4.0 0.00 0.00 0.00 52 1017.0
20260503235520 60 292 4.0 4.0 0.00 0.00 0.00 52 1017.1
20260503235419 60 292 3.0 4.0 0.00 0.00 0.00 53 1016.9
20260503235319 60 292 3.0 4.0 0.00 0.00 0.00 53 1016.8
20260503235219 60 292 2.0 4.0 0.00 0.00 0.00 53 1016.9
20260503235120 60 292 2.0 4.0 0.00 0.00 0.00 53 1017.1
20260503235020 60 292 2.0 4.0 0.00 0.00 0.00 53 1017.1
20260503234919 60 292 2.0 4.0 0.00 0.00 0.00 53 1016.9
20260503234819 60 292 3.0 4.0 0.00 0.00 0.00 53 1017.1
20260503234719 60 292 2.0 4.0 0.00 0.00 0.00 53 1017.1
20260503234619 60 292 2.0 4.0 0.00 0.00 0.00 52 1017.0
20260503234519 60 292 3.0 4.0 0.00 0.00 0.00 52 1016.9
20260503234419 60 292 4.0 4.0 0.00 0.00 0.00 52 1017.1
20260503234320 60 292 3.0 4.0 0.00 0.00 0.00 52 1017.3
20260503234219 60 292 4.0 4.0 0.00 0.00 0.00 53 1017.2
20260503234119 60 292 4.0 4.0 0.00 0.00 0.00 53 1017.0
20260503234020 60 292 4.0 4.0 0.00 0.00 0.00 53 1016.9
20260503233919 60 292 3.0 4.0 0.00 0.00 0.00 52 1017.1
20260503233819 60 292 3.0 4.0 0.00 0.00 0.00 52 1017.1
20260503233719 60 292 3.0 4.0 0.00 0.00 0.00 52 1017.1
20260503233620 60 292 2.0 4.0 0.00 0.00 0.00 52 1017.2
20260503233519 60 292 4.0 4.0 0.00 0.00 0.00 52 1016.9
20260503233419 60 292 3.0 4.0 0.00 0.00 0.00 52 1017.0
20260503233320 60 291 3.0 4.0 0.00 0.00 0.00 52 1017.0
20260503233219 60 290 4.0 4.0 0.00 0.00 0.00 52 1017.0
20260503233119 60 290 4.0 4.0 0.00 0.00 0.00 52 1016.9
20260503233019 60 290 4.0 4.0 0.00 0.00 0.00 52 1017.1
20260503232919 60 290 4.0 4.0 0.00 0.00 0.00 53 1016.8
20260503232820 60 290 3.0 4.0 0.00 0.00 0.00 53 1017.0
20260503232719 60 290 3.0 4.0 0.00 0.00 0.00 53 1017.1
20260503232619 60 288 2.0 4.0 0.00 0.00 0.00 53 1017.0
20260503232519 60 287 1.0 2.0 0.00 0.00 0.00 53 1017.1
20260503232419 60 288 0.0 2.0 0.00 0.00 0.00 53 1017.1
20260503232319 60 290 2.0 2.0 0.00 0.00 0.00 54 1017.0
20260503232219 60 289 2.0 2.0 0.00 0.00 0.00 54 1017.0
20260503232119 60 289 2.0 2.0 0.00 0.00 0.00 54 1017.0
20260503232019 59 287 2.0 2.0 0.00 0.00 0.00 54 1016.9
20260503231919 59 286 2.0 2.0 0.00 0.00 0.00 55 1017.1
20260503231819 59 286 1.0 2.0 0.00 0.00 0.00 55 1017.0
20260503231719 59 283 1.0 2.0 0.00 0.00 0.00 54 1016.8
20260503231619 59 284 1.0 4.0 0.00 0.00 0.00 54 1017.1
20260503231519 59 286 1.0 4.0 0.00 0.00 0.00 54 1017.0
20260503231419 59 287 0.0 4.0 0.00 0.00 0.00 54 1016.9
20260503231319 59 288 0.0 4.0 0.00 0.00 0.00 54 1017.0
20260503231219 59 289 0.0 4.0 0.00 0.00 0.00 53 1017.2
20260503231119 60 289 0.0 4.0 0.00 0.00 0.00 52 1017.1
20260503231019 60 290 0.0 4.0 0.00 0.00 0.00 52 1017.2
20260503230920 61 290 0.0 4.0 0.00 0.00 0.00 51 1017.1
20260503230819 61 290 1.0 6.0 0.00 0.00 0.00 51 1017.0
20260503230719 62 291 1.0 6.0 0.00 0.00 0.00 49 1017.1
20260503230620 62 292 2.0 6.0 0.00 0.00 0.00 49 1017.1
20260503230519 62 292 2.0 6.0 0.00 0.00 0.00 49 1017.2
20260503230419 62 292 4.0 6.0 0.00 0.00 0.00 49 1017.1
20260503230319 62 292 4.0 6.0 0.00 0.00 0.00 49 1017.2
20260503230219 62 292 4.0 6.0 0.00 0.00 0.00 49 1017.0
20260503230119 62 292 4.0 6.0 0.00 0.00 0.00 48 1017.2
20260503230019 62 292 4.0 6.0 0.00 0.00 0.00 49 1017.0
20260503225919 62 292 4.0 6.0 0.00 0.00 0.00 49 1017.0
20260503225819 62 292 4.0 6.0 0.00 0.00 0.00 49 1016.8
20260503225719 62 292 4.0 6.0 0.00 0.00 0.00 49 1017.0
20260503225619 62 292 4.0 6.0 0.00 0.00 0.00 49 1017.0
20260503225520 60 292 4.0 6.0 0.00 0.00 0.00 52 1017.2
20260503225419 60 292 4.0 6.0 0.00 0.00 0.00 52 1017.2
20260503225319 60 292 4.0 6.0 0.00 0.00 0.00 52 1017.1
20260503225219 59 292 5.0 6.0 0.00 0.00 0.00 54 1017.2
20260503225119 58 292 4.0 6.0 0.00 0.00 0.00 54 1017.1
20260503225019 58 291 4.0 6.0 0.00 0.00 0.00 54 1017.1
20260503224920 58 291 4.0 6.0 0.00 0.00 0.00 54 1017.2
20260503224819 58 290 4.0 4.0 0.00 0.00 0.00 55 1017.0
20260503224719 58 290 4.0 4.0 0.00 0.00 0.00 55 1017.3
20260503224619 58 290 3.0 4.0 0.00 0.00 0.00 55 1017.1
20260503224519 58 291 2.0 4.0 0.00 0.00 0.00 54 1017.2
20260503224419 59 291 2.0 4.0 0.00 0.00 0.00 53 1017.2
20260503224319 59 291 2.0 4.0 0.00 0.00 0.00 53 1017.3
20260503224219 60 290 2.0 4.0 0.00 0.00 0.00 53 1017.3
20260503224119 60 289 3.0 4.0 0.00 0.00 0.00 53 1017.3
20260503224019 59 289 4.0 4.0 0.00 0.00 0.00 53 1017.4
20260503223919 60 288 2.0 4.0 0.00 0.00 0.00 52 1017.3
20260503223819 60 287 4.0 4.0 0.00 0.00 0.00 53 1017.3
20260503223719 60 287 2.0 4.0 0.00 0.00 0.00 53 1017.2
20260503223619 60 286 3.0 4.0 0.00 0.00 0.00 53 1017.4
20260503223519 60 285 2.0 4.0 0.00 0.00 0.00 53 1017.4
20260503223419 60 284 3.0 4.0 0.00 0.00 0.00 53 1017.2
20260503223319 60 281 1.0 4.0 0.00 0.00 0.00 53 1017.2
20260503223219 60 282 1.0 4.0 0.00 0.00 0.00 53 1017.3
20260503223119 59 283 1.0 4.0 0.00 0.00 0.00 54 1017.4
20260503223019 60 283 2.0 4.0 0.00 0.00 0.00 54 1017.1
20260503222920 59 282 2.0 4.0 0.00 0.00 0.00 54 1017.3
20260503222819 59 282 2.0 4.0 0.00 0.00 0.00 55 1017.4
20260503222719 60 279 2.0 4.0 0.00 0.00 0.00 53 1017.3
20260503222619 61 276 1.0 4.0 0.00 0.00 0.00 53 1017.1
20260503222519 61 270 1.0 4.0 0.00 0.00 0.00 52 1017.3
20260503222420 61 268 1.0 4.0 0.00 0.00 0.00 52 1017.2
20260503222320 60 264 2.0 4.0 0.00 0.00 0.00 53 1017.2
20260503222219 60 259 2.0 4.0 0.00 0.00 0.00 53 1017.3
20260503222119 60 255 1.0 4.0 0.00 0.00 0.00 54 1017.5
20260503222019 60 253 1.0 4.0 0.00 0.00 0.00 54 1017.2
20260503221919 60 252 1.0 4.0 0.00 0.00 0.00 54 1017.1
20260503221819 60 251 1.0 4.0 0.00 0.00 0.00 54 1017.2
20260503221719 60 250 1.0 4.0 0.00 0.00 0.00 55 1017.1
20260503221619 60 249 2.0 4.0 0.00 0.00 0.00 55 1017.3
20260503221519 60 250 3.0 4.0 0.00 0.00 0.00 55 1017.2
20260503221419 60 251 2.0 4.0 0.00 0.00 0.00 55 1017.3
20260503221319 60 253 2.0 4.0 0.00 0.00 0.00 56 1017.0
20260503221219 60 255 3.0 4.0 0.00 0.00 0.00 55 1017.0
20260503221119 59 257 4.0 4.0 0.00 0.00 0.00 56 1017.1
20260503221019 59 260 3.0 4.0 0.00 0.00 0.00 56 1017.2
20260503220919 59 265 3.0 4.0 0.00 0.00 0.00 57 1017.3
20260503220819 59 269 2.0 4.0 0.00 0.00 0.00 57 1017.3
20260503220719 58 270 1.0 2.0 0.00 0.00 0.00 58 1017.3
20260503220619 58 270 1.0 2.0 0.00 0.00 0.00 58 1017.2
20260503220519 58 270 1.0 2.0 0.00 0.00 0.00 58 1017.2
20260503220419 58 270 1.0 2.0 0.00 0.00 0.00 58 1017.3
20260503220319 58 270 1.0 4.0 0.00 0.00 0.00 58 1017.4
20260503220219 58 270 1.0 4.0 0.00 0.00 0.00 59 1017.1
20260503220119 58 270 1.0 4.0 0.00 0.00 0.00 59 1017.1
20260503220020 58 270 1.0 4.0 0.00 0.00 0.00 59 1017.3
20260503215919 58 272 2.0 4.0 0.00 0.00 0.00 59 1017.6
20260503215820 58 273 2.0 4.0 0.00 0.00 0.00 59 1017.3
20260503215719 58 274 1.0 4.0 0.00 0.00 0.00 59 1017.4
20260503215619 58 276 1.0 4.0 0.00 0.00 0.00 58 1017.4
20260503215519 58 278 2.0 4.0 0.00 0.00 0.00 58 1017.1
20260503215419 58 278 1.0 4.0 0.00 0.00 0.00 58 1017.5
20260503215319 59 278 2.0 4.0 0.00 0.00 0.00 58 1017.3
20260503215219 59 274 1.0 4.0 0.00 0.00 0.00 58 1017.1
20260503215119 59 269 1.0 4.0 0.00 0.00 0.00 58 1017.1
20260503215019 59 267 1.0 4.0 0.00 0.00 0.00 57 1017.3
20260503214919 59 264 1.0 4.0 0.00 0.00 0.00 57 1016.9
20260503214819 59 263 1.0 4.0 0.00 0.00 0.00 57 1017.2
20260503214719 59 262 1.0 4.0 0.00 0.00 0.00 57 1017.1
20260503214619 60 258 1.0 4.0 0.00 0.00 0.00 57 1017.2
20260503214519 60 253 2.0 4.0 0.00 0.00 0.00 57 1017.2
20260503214419 60 252 0.0 4.0 0.00 0.00 0.00 56 1017.4
20260503214319 60 250 1.0 4.0 0.00 0.00 0.00 56 1017.1
20260503214219 60 251 3.0 4.0 0.00 0.00 0.00 56 1017.2
20260503214119 60 253 2.0 4.0 0.00 0.00 0.00 56 1017.2
20260503214019 60 253 1.0 4.0 0.00 0.00 0.00 56 1017.1
20260503213919 60 254 1.0 4.0 0.00 0.00 0.00 56 1017.1
20260503213819 60 254 2.0 4.0 0.00 0.00 0.00 55 1017.2
20260503213719 60 256 2.0 4.0 0.00 0.00 0.00 55 1017.0
20260503213619 60 263 2.0 4.0 0.00 0.00 0.00 56 1017.1
20260503213519 60 274 1.0 4.0 0.00 0.00 0.00 56 1017.1
20260503213419 60 279 2.0 4.0 0.00 0.00 0.00 56 1017.0
20260503213319 60 281 1.0 4.0 0.00 0.00 0.00 57 1017.1
20260503213219 60 283 1.0 4.0 0.00 0.00 0.00 57 1017.4
20260503213119 60 282 1.0 4.0 0.00 0.00 0.00 57 1017.2
20260503213019 59 280 1.0 4.0 0.00 0.00 0.00 58 1017.2
20260503212919 59 281 1.0 4.0 0.00 0.00 0.00 58 1017.2
20260503212819 59 282 2.0 4.0 0.00 0.00 0.00 58 1017.3
20260503212719 59 281 2.0 4.0 0.00 0.00 0.00 58 1017.2
20260503212619 59 280 2.0 4.0 0.00 0.00 0.00 58 1017.0
20260503212519 59 277 2.0 4.0 0.00 0.00 0.00 57 1017.3
20260503212419 59 276 2.0 4.0 0.00 0.00 0.00 57 1017.1
20260503212319 59 279 1.0 4.0 0.00 0.00 0.00 57 1016.9
20260503212219 59 280 2.0 4.0 0.00 0.00 0.00 58 1017.1
20260503212119 59 283 2.0 4.0 0.00 0.00 0.00 58 1017.3
20260503212019 59 287 1.0 4.0 0.00 0.00 0.00 58 1017.1
20260503211919 59 288 1.0 4.0 0.00 0.00 0.00 58 1017.3
20260503211819 59 289 1.0 4.0 0.00 0.00 0.00 58 1017.1
20260503211719 59 290 1.0 4.0 0.00 0.00 0.00 58 1017.3
20260503211619 59 291 1.0 4.0 0.00 0.00 0.00 58 1017.4
20260503211519 59 292 2.0 4.0 0.00 0.00 0.00 58 1017.5
20260503211419 59 291 2.0 4.0 0.00 0.00 0.00 58 1017.4
20260503211319 59 290 2.0 4.0 0.00 0.00 0.00 58 1017.1
20260503211219 59 288 3.0 4.0 0.00 0.00 0.00 58 1017.3
20260503211119 59 286 3.0 4.0 0.00 0.00 0.00 58 1017.0
20260503211019 59 285 2.0 4.0 0.00 0.00 0.00 58 1017.1
20260503210919 59 282 3.0 4.0 0.00 0.00 0.00 58 1017.1
20260503210819 59 276 2.0 4.0 0.00 0.00 0.00 58 1017.2
20260503210719 59 270 2.0 4.0 0.00 0.00 0.00 57 1017.1
20260503210619 59 268 2.0 4.0 0.00 0.00 0.00 58 1017.1
20260503210519 59 270 1.0 4.0 0.00 0.00 0.00 57 1017.2
20260503210419 59 270 1.0 4.0 0.00 0.00 0.00 57 1017.2
20260503210319 59 272 2.0 4.0 0.00 0.00 0.00 57 1017.0
20260503210219 59 272 1.0 4.0 0.00 0.00 0.00 57 1017.2
20260503210119 59 274 2.0 4.0 0.00 0.00 0.00 57 1017.3
20260503210019 59 274 2.0 4.0 0.00 0.00 0.00 57 1017.1
20260503205919 59 275 2.0 4.0 0.00 0.00 0.00 58 1017.2
20260503205819 59 277 1.0 4.0 0.00 0.00 0.00 58 1017.1
20260503205719 59 278 1.0 6.0 0.00 0.00 0.00 58 1017.2
20260503205619 59 278 2.0 6.0 0.00 0.00 0.00 58 1017.3
20260503205519 59 275 2.0 6.0 0.00 0.00 0.00 58 1017.1
20260503205419 59 275 2.0 6.0 0.00 0.00 0.00 57 1017.2
20260503205319 59 271 1.0 6.0 0.00 0.00 0.00 56 1017.1
20260503205219 59 272 2.0 6.0 0.00 0.00 0.00 56 1017.2
20260503205119 60 269 2.0 6.0 0.00 0.00 0.00 56 1017.4
20260503205019 60 269 1.0 6.0 0.00 0.00 0.00 55 1017.3
20260503204919 60 269 2.0 6.0 0.00 0.00 0.00 55 1017.2
20260503204819 60 269 2.0 6.0 0.00 0.00 0.00 55 1017.1
20260503204719 60 268 3.0 4.0 0.00 0.00 0.00 56 1017.4
20260503204619 60 269 2.0 4.0 0.00 0.00 0.00 55 1016.9
20260503204519 60 272 2.0 4.0 0.00 0.00 0.00 55 1017.1
20260503204419 60 275 0.0 2.0 0.00 0.00 0.00 55 1017.2
20260503204319 60 281 1.0 2.0 0.00 0.00 0.00 55 1017.0
20260503204219 60 283 1.0 2.0 0.00 0.00 0.00 55 1017.4
20260503204119 60 285 0.0 2.0 0.00 0.00 0.00 55 1017.2
20260503204019 60 287 0.0 2.0 0.00 0.00 0.00 55 1017.1
20260503203919 60 289 0.0 2.0 0.00 0.00 0.00 55 1017.2
20260503203819 60 291 0.0 2.0 0.00 0.00 0.00 55 1017.2
20260503203719 60 292 0.0 2.0 0.00 0.00 0.00 55 1017.2
20260503203619 60 292 1.0 2.0 0.00 0.00 0.00 54 1017.2
20260503203519 60 292 1.0 2.0 0.00 0.00 0.00 54 1017.3
20260503203419 60 290 1.0 2.0 0.00 0.00 0.00 54 1017.1
20260503203319 60 287 2.0 2.0 0.00 0.00 0.00 54 1017.2
20260503203219 60 283 1.0 2.0 0.00 0.00 0.00 54 1017.3
20260503203119 60 279 1.0 2.0 0.00 0.00 0.00 53 1017.0
20260503203019 60 275 1.0 2.0 0.00 0.00 0.00 53 1017.2
20260503202919 60 272 1.0 2.0 0.00 0.00 0.00 54 1017.2
20260503202819 60 267 0.0 2.0 0.00 0.00 0.00 54 1017.2
20260503202719 60 265 0.0 2.0 0.00 0.00 0.00 54 1017.1
20260503202619 60 265 0.0 2.0 0.00 0.00 0.00 54 1017.2
20260503202519 60 265 0.0 2.0 0.00 0.00 0.00 54 1017.4
20260503202419 60 264 0.0 2.0 0.00 0.00 0.00 54 1017.1
20260503202319 60 260 0.0 2.0 0.00 0.00 0.00 54 1017.1
20260503202219 60 247 0.0 2.0 0.00 0.00 0.00 54 1017.1
20260503202119 60 247 0.0 2.0 0.00 0.00 0.00 54 1017.0
20260503202019 60 247 0.0 2.0 0.00 0.00 0.00 53 1017.0
20260503201919 60 247 0.0 2.0 0.00 0.00 0.00 53 1017.2
20260503201819 60 247 0.0 2.0 0.00 0.00 0.00 53 1017.2
20260503201719 61 247 0.0 2.0 0.00 0.00 0.00 53 1017.2
20260503201619 61 247 0.0 2.0 0.00 0.00 0.00 53 1017.0
20260503201519 61 249 0.0 2.0 0.00 0.00 0.00 53 1016.9
20260503201419 61 249 0.0 2.0 0.00 0.00 0.00 53 1017.2
20260503201319 61 249 0.0 2.0 0.00 0.00 0.00 53 1017.0
20260503201219 61 250 1.0 2.0 0.00 0.00 0.00 53 1017.1
20260503201119 61 250 1.0 2.0 0.00 0.00 0.00 53 1017.0
20260503201019 61 251 1.0 2.0 0.00 0.00 0.00 52 1017.3
20260503200919 61 252 1.0 2.0 0.00 0.00 0.00 52 1017.2
20260503200819 61 253 1.0 2.0 0.00 0.00 0.00 52 1017.4
20260503200719 61 268 2.0 2.0 0.00 0.00 0.00 52 1017.3
20260503200619 61 281 0.0 2.0 0.00 0.00 0.00 51 1017.2
20260503200519 61 292 0.0 2.0 0.00 0.00 0.00 51 1017.0
20260503200419 61 292 0.0 2.0 0.00 0.00 0.00 51 1017.2
20260503200319 61 292 0.0 2.0 0.00 0.00 0.00 51 1017.3
20260503200219 62 292 0.0 2.0 0.00 0.00 0.00 51 1017.4
20260503200119 62 292 0.0 2.0 0.00 0.00 0.00 51 1017.2
20260503200019 62 292 0.0 2.0 0.00 0.00 0.00 51 1017.1
20260503195919 62 292 0.0 2.0 0.00 0.00 0.00 51 1017.2
20260503195819 62 292 0.0 2.0 0.00 0.00 0.00 51 1017.3
20260503195719 62 0 0.0 0.0 0.00 0.00 0.00 51 1017.1
20260503195619 61 0 0.0 0.0 0.00 0.00 0.00 51 1017.2
20260503195519 61 247 0.0 2.0 0.00 0.00 0.00 52 1017.0
20260503195419 61 247 0.0 2.0 0.00 0.00 0.00 52 1017.2
20260503195319 61 252 0.0 2.0 0.00 0.00 0.00 53 1017.3
20260503195219 61 256 0.0 2.0 0.00 0.00 0.00 53 1017.1
20260503195119 61 259 0.0 2.0 0.00 0.00 0.00 53 1017.1
20260503195019 61 261 0.0 2.0 0.00 0.00 0.00 53 1017.0
20260503194919 61 262 0.0 2.0 0.00 0.00 0.00 53 1017.3
20260503194819 61 263 0.0 2.0 0.00 0.00 0.00 53 1017.2
20260503194719 61 264 0.0 2.0 0.00 0.00 0.00 53 1017.1
20260503194619 61 262 0.0 4.0 0.00 0.00 0.00 53 1017.2
20260503194519 61 258 2.0 6.0 0.00 0.00 0.00 53 1017.3
20260503194419 61 258 2.0 6.0 0.00 0.00 0.00 53 1017.3
20260503194319 61 255 0.0 6.0 0.00 0.00 0.00 53 1017.3
20260503194219 61 254 0.0 6.0 0.00 0.00 0.00 53 1017.2
20260503194119 61 252 1.0 6.0 0.00 0.00 0.00 53 1017.0
20260503194019 61 251 0.0 6.0 0.00 0.00 0.00 53 1017.2
20260503193919 61 250 1.0 6.0 0.00 0.00 0.00 53 1017.1
20260503193819 61 249 2.0 6.0 0.00 0.00 0.00 53 1017.3
20260503193719 61 248 1.0 6.0 0.00 0.00 0.00 53 1017.0
20260503193619 61 247 3.0 6.0 0.00 0.00 0.00 52 1017.3
20260503193519 61 248 4.0 6.0 0.00 0.00 0.00 53 1017.3
20260503193419 61 249 4.0 4.0 0.00 0.00 0.00 52 1017.1
20260503193319 62 251 3.0 4.0 0.00 0.00 0.00 52 1017.2
20260503193219 62 253 3.0 4.0 0.00 0.00 0.00 52 1017.2
20260503193119 62 257 2.0 4.0 0.00 0.00 0.00 52 1017.0
20260503193019 62 261 2.0 4.0 0.00 0.00 0.00 52 1016.9
20260503192919 62 266 3.0 4.0 0.00 0.00 0.00 52 1017.3
20260503192819 62 273 2.0 2.0 0.00 0.00 0.00 52 1017.1
20260503192719 62 280 2.0 2.0 0.00 0.00 0.00 52 1017.3
20260503192619 62 283 2.0 2.0 0.00 0.00 0.00 52 1017.1
20260503192519 62 285 1.0 2.0 0.00 0.00 0.00 52 1017.2
20260503192419 62 286 0.0 2.0 0.00 0.00 0.00 52 1017.2
20260503192319 62 285 1.0 2.0 0.00 0.00 0.00 52 1017.2
20260503192219 62 287 0.0 2.0 0.00 0.00 0.00 52 1017.1
20260503192119 62 286 1.0 2.0 0.00 0.00 0.00 52 1017.2
20260503192019 62 283 2.0 4.0 0.00 0.00 0.00 52 1017.3
20260503191919 62 274 1.0 4.0 0.00 0.00 0.00 52 1017.2
20260503191819 62 270 2.0 4.0 0.00 0.00 0.00 52 1017.1
20260503191719 62 269 2.0 4.0 0.00 0.00 0.00 52 1017.1
20260503191619 62 264 2.0 4.0 0.00 0.00 0.00 52 1017.0
20260503191519 62 262 0.0 4.0 0.00 0.00 0.00 52 1017.0
20260503191419 62 262 1.0 4.0 0.00 0.00 0.00 52 1017.2
20260503191319 62 262 1.0 4.0 0.00 0.00 0.00 52 1017.2
20260503191219 62 262 0.0 4.0 0.00 0.00 0.00 52 1016.9
20260503191119 62 262 1.0 4.0 0.00 0.00 0.00 51 1017.0
20260503191019 62 260 2.0 4.0 0.00 0.00 0.00 50 1017.0
20260503190919 62 264 2.0 4.0 0.00 0.00 0.00 50 1017.1
20260503190819 62 263 2.0 4.0 0.00 0.00 0.00 51 1017.0
20260503190719 62 259 2.0 4.0 0.00 0.00 0.00 51 1017.2
20260503190619 62 258 1.0 4.0 0.00 0.00 0.00 51 1017.0
20260503190519 62 256 1.0 4.0 0.00 0.00 0.00 51 1017.2
20260503190419 62 254 1.0 4.0 0.00 0.00 0.00 51 1017.0
20260503190319 62 252 1.0 4.0 0.00 0.00 0.00 50 1017.0
20260503190219 62 250 1.0 4.0 0.00 0.00 0.00 51 1017.1
20260503190119 63 249 1.0 4.0 0.00 0.00 0.00 50 1017.0
20260503190019 63 249 2.0 6.0 0.00 0.00 0.00 50 1016.9
20260503185919 62 247 4.0 6.0 0.00 0.00 0.00 50 1017.1
20260503185819 62 247 3.0 6.0 0.00 0.00 0.00 50 1017.0
20260503185719 62 249 3.0 6.0 0.00 0.00 0.00 51 1017.0
20260503185619 62 249 3.0 6.0 0.00 0.00 0.00 50 1017.0
20260503185519 63 249 2.0 6.0 0.00 0.00 0.00 50 1017.0
20260503185419 62 249 2.0 6.0 0.00 0.00 0.00 50 1017.0
20260503185319 63 251 2.0 6.0 0.00 0.00 0.00 50 1017.0
20260503185219 63 251 2.0 6.0 0.00 0.00 0.00 49 1017.0
20260503185119 63 251 4.0 6.0 0.00 0.00 0.00 49 1017.0
20260503185019 63 253 3.0 6.0 0.00 0.00 0.00 49 1017.0
20260503184919 63 254 3.0 6.0 0.00 0.00 0.00 49 1016.9
20260503184819 63 256 2.0 6.0 0.00 0.00 0.00 49 1017.1
20260503184719 63 256 2.0 6.0 0.00 0.00 0.00 49 1017.0
20260503184619 63 258 3.0 6.0 0.00 0.00 0.00 49 1016.9
20260503184519 63 260 4.0 6.0 0.00 0.00 0.00 48 1016.9
20260503184419 63 263 3.0 6.0 0.00 0.00 0.00 49 1017.0
20260503184319 63 261 3.0 4.0 0.00 0.00 0.00 49 1017.0
20260503184219 63 261 3.0 4.0 0.00 0.00 0.00 48 1017.1
20260503184119 63 261 0.0 4.0 0.00 0.00 0.00 48 1016.9
20260503184019 63 260 2.0 4.0 0.00 0.00 0.00 48 1017.0
20260503183919 63 259 1.0 4.0 0.00 0.00 0.00 48 1017.0
20260503183819 63 258 1.0 4.0 0.00 0.00 0.00 49 1017.0
20260503183719 63 257 1.0 4.0 0.00 0.00 0.00 48 1016.9
20260503183619 63 257 1.0 4.0 0.00 0.00 0.00 48 1016.9
20260503183519 63 256 2.0 4.0 0.00 0.00 0.00 48 1017.0
20260503183419 63 257 2.0 4.0 0.00 0.00 0.00 49 1017.0
20260503183319 63 260 2.0 4.0 0.00 0.00 0.00 49 1016.9
20260503183219 63 264 1.0 2.0 0.00 0.00 0.00 48 1017.0
20260503183119 63 267 2.0 2.0 0.00 0.00 0.00 48 1017.0
20260503183019 63 270 0.0 2.0 0.00 0.00 0.00 48 1017.0
20260503182919 63 271 1.0 2.0 0.00 0.00 0.00 48 1017.1
20260503182819 63 273 0.0 2.0 0.00 0.00 0.00 48 1017.0
20260503182719 63 273 0.0 2.0 0.00 0.00 0.00 47 1016.9
20260503182619 63 274 1.0 2.0 0.00 0.00 0.00 47 1017.0
20260503182519 63 271 1.0 2.0 0.00 0.00 0.00 47 1017.2
20260503182419 63 268 0.0 2.0 0.00 0.00 0.00 47 1016.9
20260503182319 63 263 0.0 2.0 0.00 0.00 0.00 48 1016.9
20260503182219 63 266 0.0 2.0 0.00 0.00 0.00 48 1017.0
20260503182119 63 270 0.0 2.0 0.00 0.00 0.00 48 1016.8
20260503182019 63 274 0.0 2.0 0.00 0.00 0.00 48 1016.9
20260503181919 63 278 0.0 2.0 0.00 0.00 0.00 48 1016.9
20260503181819 63 279 0.0 2.0 0.00 0.00 0.00 48 1017.1
20260503181719 63 282 0.0 2.0 0.00 0.00 0.00 48 1016.8
20260503181619 63 284 0.0 4.0 0.00 0.00 0.00 48 1017.0
20260503181519 63 286 1.0 4.0 0.00 0.00 0.00 48 1016.9
20260503181419 63 285 1.0 4.0 0.00 0.00 0.00 48 1017.0
20260503181319 63 284 0.0 4.0 0.00 0.00 0.00 47 1016.7
20260503181219 64 284 1.0 4.0 0.00 0.00 0.00 48 1017.0
20260503181119 64 283 1.0 4.0 0.00 0.00 0.00 47 1017.0
20260503181019 64 282 2.0 4.0 0.00 0.00 0.00 48 1017.0
20260503180918 63 281 1.0 4.0 0.00 0.00 0.00 48 1016.9
20260503180819 63 278 2.0 4.0 0.00 0.00 0.00 49 1016.9
20260503180719 63 274 2.0 4.0 0.00 0.00 0.00 49 1016.8
20260503180619 64 263 1.0 2.0 0.00 0.00 0.00 49 1016.9
20260503180519 64 253 0.0 2.0 0.00 0.00 0.00 49 1016.9
20260503180419 64 247 0.0 2.0 0.00 0.00 0.00 49 1017.1
20260503180319 64 0 0.0 0.0 0.00 0.00 0.00 49 1016.9
20260503180219 64 0 0.0 0.0 0.00 0.00 0.00 49 1016.8
20260503180119 64 0 0.0 0.0 0.00 0.00 0.00 49 1017.1
20260503180019 64 0 0.0 0.0 0.00 0.00 0.00 49 1017.0
20260503175919 64 0 0.0 0.0 0.00 0.00 0.00 49 1016.9
20260503175819 64 0 0.0 0.0 0.00 0.00 0.00 48 1016.7
20260503175719 64 0 0.0 0.0 0.00 0.00 0.00 48 1016.9
20260503175618 64 0 0.0 0.0 0.00 0.00 0.00 48 1016.8
20260503175519 64 0 0.0 0.0 0.00 0.00 0.00 48 1016.9
20260503175419 64 0 0.0 0.0 0.00 0.00 0.00 48 1016.7
20260503175318 64 0 0.0 0.0 0.00 0.00 0.00 48 1016.8
20260503175219 64 0 0.0 0.0 0.00 0.00 0.00 48 1016.8
20260503175119 64 0 0.0 0.0 0.00 0.00 0.00 48 1016.9
20260503175019 64 0 0.0 0.0 0.00 0.00 0.00 48 1016.9
20260503174919 64 0 0.0 0.0 0.00 0.00 0.00 48 1016.9
20260503174819 64 112 0.0 2.0 0.00 0.00 0.00 48 1016.8
20260503174719 64 112 0.0 2.0 0.00 0.00 0.00 49 1016.8
20260503174619 64 112 0.0 2.0 0.00 0.00 0.00 49 1016.7
20260503174519 64 112 0.0 2.0 0.00 0.00 0.00 49 1016.8
20260503174419 64 112 0.0 2.0 0.00 0.00 0.00 49 1016.7
20260503174318 64 112 0.0 2.0 0.00 0.00 0.00 48 1016.8
20260503174219 64 112 0.0 2.0 0.00 0.00 0.00 48 1016.8
20260503174119 64 112 0.0 2.0 0.00 0.00 0.00 48 1016.9
20260503174019 64 112 0.0 2.0 0.00 0.00 0.00 48 1016.7
20260503173919 65 112 0.0 2.0 0.00 0.00 0.00 48 1016.9
20260503173819 65 112 0.0 2.0 0.00 0.00 0.00 48 1016.6
20260503173719 65 112 0.0 2.0 0.00 0.00 0.00 47 1016.9
20260503173619 65 112 0.0 2.0 0.00 0.00 0.00 47 1016.5
20260503173519 65 0 0.0 0.0 0.00 0.00 0.00 48 1016.9
20260503173418 65 0 0.0 0.0 0.00 0.00 0.00 48 1016.8
20260503173319 65 0 0.0 0.0 0.00 0.00 0.00 48 1016.7
20260503173219 65 0 0.0 0.0 0.00 0.00 0.00 47 1016.8
20260503173118 65 0 0.0 0.0 0.00 0.00 0.00 48 1017.1
20260503173019 65 0 0.0 0.0 0.00 0.00 0.00 48 1016.8
20260503172919 65 0 0.0 0.0 0.00 0.00 0.00 47 1016.8
20260503172819 65 0 0.0 0.0 0.00 0.00 0.00 47 1016.9
20260503172719 65 112 0.0 2.0 0.00 0.00 0.00 47 1016.8
20260503172619 65 112 0.0 2.0 0.00 0.00 0.00 47 1016.7
20260503172519 65 112 0.0 2.0 0.00 0.00 0.00 47 1016.8
20260503172419 65 112 0.0 2.0 0.00 0.00 0.00 47 1017.0
20260503172318 65 112 0.0 2.0 0.00 0.00 0.00 47 1016.7
20260503172219 65 112 0.0 2.0 0.00 0.00 0.00 47 1016.9
20260503172119 65 112 0.0 2.0 0.00 0.00 0.00 47 1016.8
20260503172019 65 115 0.0 2.0 0.00 0.00 0.00 48 1017.0
20260503171919 65 117 0.0 2.0 0.00 0.00 0.00 47 1016.9
20260503171819 65 119 0.0 2.0 0.00 0.00 0.00 47 1016.9
20260503171719 65 122 0.0 2.0 0.00 0.00 0.00 47 1016.7
20260503171619 65 122 1.0 2.0 0.00 0.00 0.00 46 1016.7
20260503171519 65 122 1.0 2.0 0.00 0.00 0.00 46 1016.9
20260503171419 65 125 1.0 2.0 0.00 0.00 0.00 46 1016.9
20260503171319 66 130 2.0 2.0 0.00 0.00 0.00 45 1016.8
20260503171219 66 134 1.0 2.0 0.00 0.00 0.00 45 1016.8
20260503171118 66 134 1.0 2.0 0.00 0.00 0.00 45 1016.8
20260503171019 66 135 1.0 2.0 0.00 0.00 0.00 44 1016.7
20260503170918 66 135 1.0 4.0 0.00 0.00 0.00 45 1016.8
20260503170819 66 135 1.0 4.0 0.00 0.00 0.00 44 1016.9
20260503170719 66 136 1.0 4.0 0.00 0.00 0.00 45 1016.8
20260503170619 66 141 1.0 4.0 0.00 0.00 0.00 45 1016.8
20260503170519 66 141 0.0 4.0 0.00 0.00 0.00 45 1017.1
20260503170418 66 143 2.0 4.0 0.00 0.00 0.00 45 1016.8
20260503170319 66 142 1.0 4.0 0.00 0.00 0.00 44 1016.9
20260503160218 68 118 2.0 6.0 0.00 0.00 0.00 43 1016.8
20260503160118 68 121 3.0 6.0 0.00 0.00 0.00 42 1016.9
20260503150918 69 97 2.0 7.0 0.00 0.00 0.00 41 1016.7
20260503150819 69 99 4.0 7.0 0.00 0.00 0.00 40 1016.8
20260503150719 69 98 6.0 7.0 0.00 0.00 0.00 40 1016.9
20260503150618 70 101 4.0 6.0 0.00 0.00 0.00 40 1016.6
20260503150519 70 98 4.0 6.0 0.00 0.00 0.00 40 1016.8
20260503150418 70 96 3.0 6.0 0.00 0.00 0.00 41 1016.9
20260503150319 70 93 2.0 6.0 0.00 0.00 0.00 41 1016.7
20260503150219 69 89 4.0 6.0 0.00 0.00 0.00 40 1016.7
20260503150119 69 90 4.0 6.0 0.00 0.00 0.00 40 1016.8
20260503140218 70 120 3.0 11.0 0.00 0.00 0.00 39 1017.2
20260503140118 70 120 5.0 11.0 0.00 0.00 0.00 39 1017.4
20260503131418 69 151 8.0 11.0 0.00 0.00 0.00 39 1017.5
20260503131318 70 144 6.0 8.0 0.00 0.00 0.00 40 1017.6
20260503131218 70 143 4.0 8.0 0.00 0.00 0.00 42 1017.7
20260503131118 70 133 4.0 8.0 0.00 0.00 0.00 42 1017.6
20260503131018 70 123 3.0 8.0 0.00 0.00 0.00 41 1017.8
20260503130918 69 123 3.0 8.0 0.00 0.00 0.00 40 1017.7
20260503130818 69 122 4.0 8.0 0.00 0.00 0.00 41 1017.4
20260503130718 70 121 4.0 8.0 0.00 0.00 0.00 39 1017.6
20260503130618 70 115 3.0 8.0 0.00 0.00 0.00 40 1017.5
20260503130518 70 105 6.0 11.0 0.00 0.00 0.00 40 1017.8
20260503130418 71 98 5.0 11.0 0.00 0.00 0.00 40 1017.8
20260503130318 71 90 2.0 11.0 0.00 0.00 0.00 42 1017.5
20260503130218 71 89 1.0 11.0 0.00 0.00 0.00 40 1017.4
20260503130118 71 89 2.0 11.0 0.00 0.00 0.00 38 1017.7
20260503120218 70 121 6.0 13.0 0.00 0.00 0.00 43 1018.4
20260503120118 70 116 8.0 13.0 0.00 0.00 0.00 40 1018.2
20260503110818 70 154 4.0 8.0 0.00 0.00 0.00 39 1018.3
20260503110718 70 157 2.0 8.0 0.00 0.00 0.00 37 1018.3
20260503110618 69 153 2.0 8.0 0.00 0.00 0.00 36 1018.3
20260503110518 69 142 3.0 8.0 0.00 0.00 0.00 36 1018.4
20260503110418 69 136 5.0 8.0 0.00 0.00 0.00 36 1018.3
20260503110318 69 129 4.0 8.0 0.00 0.00 0.00 37 1018.3
20260503110218 69 127 5.0 8.0 0.00 0.00 0.00 35 1018.3
20260503110118 69 118 5.0 8.0 0.00 0.00 0.00 35 1018.4
20260503100218 70 80 2.0 11.0 0.00 0.00 0.00 37 1018.9
20260503100118 70 88 3.0 11.0 0.00 0.00 0.00 41 1018.8
20260503090418 69 121 2.0 6.0 0.00 0.00 0.00 38 1019.1
20260503090318 68 123 1.0 6.0 0.00 0.00 0.00 38 1019.3
20260503090218 68 123 4.0 6.0 0.00 0.00 0.00 38 1019.4
20260503090118 68 124 4.0 6.0 0.00 0.00 0.00 43 1019.2
20260503081618 68 119 4.0 7.0 0.00 0.00 0.00 36 1019.3
20260503081518 68 123 2.0 4.0 0.00 0.00 0.00 37 1019.3
20260503081418 68 122 3.0 4.0 0.00 0.00 0.00 38 1019.3
20260503081318 68 125 3.0 4.0 0.00 0.00 0.00 39 1019.4
20260503081218 68 125 2.0 4.0 0.00 0.00 0.00 39 1019.3
20260503081118 68 119 3.0 4.0 0.00 0.00 0.00 36 1019.2
20260503081018 69 108 2.0 4.0 0.00 0.00 0.00 37 1019.2
20260503080918 69 108 2.0 4.0 0.00 0.00 0.00 35 1019.4
20260503080818 69 104 2.0 4.0 0.00 0.00 0.00 36 1019.4
20260503080718 69 95 0.0 2.0 0.00 0.00 0.00 34 1019.2
20260503080618 69 91 2.0 2.0 0.00 0.00 0.00 34 1019.4
20260503080517 69 83 1.0 4.0 0.00 0.00 0.00 35 1019.1
20260503080418 69 79 1.0 4.0 0.00 0.00 0.00 37 1019.2
20260503080318 69 78 0.0 4.0 0.00 0.00 0.00 36 1019.1
20260503080218 68 78 1.0 4.0 0.00 0.00 0.00 36 1019.1
20260503080118 68 78 2.0 4.0 0.00 0.00 0.00 35 1019.3
20260503072918 68 190 0.0 4.0 0.00 0.00 0.00 33 1019.2
20260503072817 67 196 0.0 4.0 0.00 0.00 0.00 34 1019.3
20260503072718 66 201 2.0 4.0 0.00 0.00 0.00 34 1019.3
20260503072618 66 204 2.0 4.0 0.00 0.00 0.00 34 1019.2
20260503072518 66 209 2.0 4.0 0.00 0.00 0.00 34 1019.3
20260503072418 66 216 2.0 4.0 0.00 0.00 0.00 35 1019.2
20260503072318 66 224 2.0 4.0 0.00 0.00 0.00 35 1019.2
20260503072218 66 232 2.0 4.0 0.00 0.00 0.00 35 1019.2
20260503072118 67 241 2.0 4.0 0.00 0.00 0.00 34 1019.3
20260503072018 67 245 0.0 4.0 0.00 0.00 0.00 34 1019.3
20260503071918 66 245 0.0 4.0 0.00 0.00 0.00 34 1019.3
20260503071818 66 246 0.0 4.0 0.00 0.00 0.00 35 1019.2
20260503071717 66 246 1.0 4.0 0.00 0.00 0.00 36 1019.1
20260503071618 66 246 1.0 4.0 0.00 0.00 0.00 34 1019.2
20260503071518 66 246 2.0 4.0 0.00 0.00 0.00 36 1019.3
20260503071418 66 246 2.0 4.0 0.00 0.00 0.00 34 1019.4
20260503071318 66 246 1.0 4.0 0.00 0.00 0.00 39 1019.4
20260503071218 66 246 1.0 4.0 0.00 0.00 0.00 38 1019.4
20260503071117 66 245 2.0 4.0 0.00 0.00 0.00 38 1019.3
20260503071017 65 245 2.0 6.0 0.00 0.00 0.00 36 1019.3
20260503070918 65 245 2.0 6.0 0.00 0.00 0.00 36 1019.3
20260503070818 65 244 2.0 6.0 0.00 0.00 0.00 39 1019.3
20260503070718 65 244 2.0 6.0 0.00 0.00 0.00 38 1019.3
20260503070618 65 242 2.0 6.0 0.00 0.00 0.00 39 1019.2
20260503070518 65 242 3.0 6.0 0.00 0.00 0.00 38 1019.3
20260503070418 65 242 2.0 6.0 0.00 0.00 0.00 40 1019.3
20260503070318 65 241 2.0 6.0 0.00 0.00 0.00 37 1019.2
20260503070218 65 241 2.0 6.0 0.00 0.00 0.00 39 1019.3
20260503070118 65 242 3.0 6.0 0.00 0.00 0.00 37 1019.1
20260503060318 60 290 1.0 2.0 0.00 0.00 0.00 48 1019.2
20260503060218 59 292 1.0 2.0 0.00 0.00 0.00 46 1019.4
20260503060118 60 294 1.0 2.0 0.00 0.00 0.00 49 1019.1
20260503055118 58 294 1.0 2.0 0.00 0.00 0.00 52 1019.2
20260503055018 58 292 2.0 2.0 0.00 0.00 0.00 50 1019.1
20260503054917 59 292 1.0 2.0 0.00 0.00 0.00 52 1019.1
20260503054817 58 292 0.0 2.0 0.00 0.00 0.00 50 1019.1
20260503054718 59 291 1.0 2.0 0.00 0.00 0.00 54 1019.0
20260503054618 58 291 1.0 4.0 0.00 0.00 0.00 50 1019.2
20260503054518 58 291 1.0 4.0 0.00 0.00 0.00 50 1019.0
20260503054418 59 291 1.0 4.0 0.00 0.00 0.00 50 1018.9
20260503054318 58 291 2.0 4.0 0.00 0.00 0.00 47 1019.2
20260503054218 58 291 2.0 4.0 0.00 0.00 0.00 45 1019.1
20260503054117 58 291 2.0 4.0 0.00 0.00 0.00 44 1019.0
20260503054017 58 291 2.0 4.0 0.00 0.00 0.00 44 1018.9
20260503053918 58 293 2.0 4.0 0.00 0.00 0.00 44 1019.0
20260503053818 58 293 1.0 4.0 0.00 0.00 0.00 45 1018.9
20260503053717 58 294 1.0 4.0 0.00 0.00 0.00 46 1019.2
20260503053618 57 294 2.0 4.0 0.00 0.00 0.00 46 1019.0
20260503053517 57 294 2.0 4.0 0.00 0.00 0.00 46 1019.0
20260503053418 57 294 2.0 4.0 0.00 0.00 0.00 46 1019.0
20260503053318 57 294 2.0 4.0 0.00 0.00 0.00 47 1019.1
20260503053218 57 294 1.0 4.0 0.00 0.00 0.00 46 1019.1
20260503053118 57 294 2.0 4.0 0.00 0.00 0.00 46 1018.9
20260503053018 57 292 2.0 4.0 0.00 0.00 0.00 46 1018.9
20260503052917 57 289 2.0 4.0 0.00 0.00 0.00 47 1018.8
20260503052818 57 290 2.0 4.0 0.00 0.00 0.00 46 1019.0
20260503052718 56 290 2.0 4.0 0.00 0.00 0.00 45 1019.0
20260503052618 56 289 3.0 4.0 0.00 0.00 0.00 47 1018.9
20260503052518 56 289 3.0 4.0 0.00 0.00 0.00 48 1018.9
20260503052418 56 288 2.0 4.0 0.00 0.00 0.00 47 1018.9
20260503052318 56 288 2.0 4.0 0.00 0.00 0.00 47 1019.0
20260503052218 56 286 2.0 4.0 0.00 0.00 0.00 49 1019.1
20260503052118 56 286 1.0 4.0 0.00 0.00 0.00 47 1018.9
20260503052018 56 288 1.0 4.0 0.00 0.00 0.00 47 1018.8
20260503051918 56 289 2.0 4.0 0.00 0.00 0.00 48 1019.1
20260503051817 56 289 2.0 4.0 0.00 0.00 0.00 50 1019.0
20260503051717 56 289 1.0 4.0 0.00 0.00 0.00 49 1018.8
20260503051618 56 290 2.0 4.0 0.00 0.00 0.00 48 1018.9
20260503051518 57 290 0.0 4.0 0.00 0.00 0.00 47 1019.1
20260503051417 57 290 2.0 4.0 0.00 0.00 0.00 45 1019.1
20260503051317 57 290 2.0 4.0 0.00 0.00 0.00 45 1018.8
20260503051218 57 291 2.0 4.0 0.00 0.00 0.00 46 1019.0
20260503051117 56 290 2.0 4.0 0.00 0.00 0.00 45 1018.8
20260503051017 56 289 2.0 4.0 0.00 0.00 0.00 45 1018.9
20260503050918 56 288 2.0 4.0 0.00 0.00 0.00 45 1019.0
20260503050817 57 288 2.0 4.0 0.00 0.00 0.00 44 1018.9
20260503050718 57 287 2.0 4.0 0.00 0.00 0.00 45 1018.9
20260503050617 57 286 2.0 4.0 0.00 0.00 0.00 45 1019.0
20260503050517 57 284 2.0 4.0 0.00 0.00 0.00 45 1018.8
20260503050418 57 282 2.0 4.0 0.00 0.00 0.00 45 1018.9
20260503050318 57 281 1.0 4.0 0.00 0.00 0.00 44 1018.9
20260503050217 57 283 1.0 4.0 0.00 0.00 0.00 43 1019.0
20260503050117 57 286 2.0 4.0 0.00 0.00 0.00 42 1019.0
20260503050018 57 287 2.0 4.0 0.00 0.00 0.00 43 1019.0
20260503045918 57 287 2.0 4.0 0.00 0.00 0.00 43 1018.7
20260503045817 57 286 1.0 4.0 0.00 0.00 0.00 44 1018.8
20260503045718 57 286 2.0 4.0 0.00 0.00 0.00 42 1018.9
20260503045618 57 287 2.0 4.0 0.00 0.00 0.00 44 1019.0
20260503045518 56 286 1.0 4.0 0.00 0.00 0.00 47 1018.9
20260503045418 56 287 2.0 4.0 0.00 0.00 0.00 47 1018.8
20260503045318 56 286 2.0 4.0 0.00 0.00 0.00 46 1018.9
20260503045217 56 284 2.0 4.0 0.00 0.00 0.00 46 1018.7
20260503045118 56 281 2.0 4.0 0.00 0.00 0.00 46 1019.0
20260503045017 56 281 2.0 4.0 0.00 0.00 0.00 45 1019.0
20260503044918 56 279 2.0 4.0 0.00 0.00 0.00 45 1018.8
20260503044818 56 278 1.0 4.0 0.00 0.00 0.00 44 1018.9
20260503044717 57 279 1.0 4.0 0.00 0.00 0.00 43 1018.7
20260503044618 57 281 2.0 4.0 0.00 0.00 0.00 43 1018.7
20260503044518 56 283 1.0 4.0 0.00 0.00 0.00 44 1019.0
20260503044418 56 285 1.0 4.0 0.00 0.00 0.00 44 1018.9
20260503044317 56 286 1.0 4.0 0.00 0.00 0.00 46 1018.9
20260503044217 55 288 2.0 4.0 0.00 0.00 0.00 46 1019.0
20260503044117 56 289 2.0 4.0 0.00 0.00 0.00 46 1019.0
20260503044017 56 288 2.0 4.0 0.00 0.00 0.00 46 1019.0
20260503043918 56 288 2.0 4.0 0.00 0.00 0.00 45 1019.0
20260503043817 56 288 2.0 4.0 0.00 0.00 0.00 45 1018.9
20260503043717 55 288 2.0 4.0 0.00 0.00 0.00 46 1019.0
20260503043618 55 287 2.0 4.0 0.00 0.00 0.00 45 1018.9
20260503043518 56 287 2.0 4.0 0.00 0.00 0.00 45 1019.0
20260503043418 56 287 2.0 4.0 0.00 0.00 0.00 45 1019.0
20260503043318 55 286 2.0 4.0 0.00 0.00 0.00 45 1019.1
20260503043217 55 287 1.0 4.0 0.00 0.00 0.00 46 1018.9
20260503043117 55 287 1.0 4.0 0.00 0.00 0.00 46 1018.8
20260503043017 55 289 0.0 4.0 0.00 0.00 0.00 46 1019.0
20260503042918 55 290 0.0 4.0 0.00 0.00 0.00 46 1018.8
20260503042817 55 292 2.0 4.0 0.00 0.00 0.00 47 1018.8
20260503042717 54 292 2.0 4.0 0.00 0.00 0.00 47 1018.7
20260503042618 54 291 1.0 4.0 0.00 0.00 0.00 48 1019.0
20260503042517 54 291 1.0 4.0 0.00 0.00 0.00 48 1018.8
20260503042417 54 291 1.0 4.0 0.00 0.00 0.00 48 1018.8
20260503042317 54 291 2.0 4.0 0.00 0.00 0.00 48 1018.9
20260503042217 54 291 2.0 4.0 0.00 0.00 0.00 48 1018.8
20260503042117 54 291 1.0 4.0 0.00 0.00 0.00 47 1018.8
20260503042018 55 291 2.0 4.0 0.00 0.00 0.00 46 1018.8
20260503041918 55 291 2.0 4.0 0.00 0.00 0.00 46 1018.9
20260503041817 56 291 1.0 4.0 0.00 0.00 0.00 45 1018.9
20260503041718 56 291 2.0 4.0 0.00 0.00 0.00 44 1019.0
20260503041617 56 292 2.0 4.0 0.00 0.00 0.00 44 1018.7
20260503041517 56 292 3.0 4.0 0.00 0.00 0.00 43 1018.8
20260503041417 56 292 2.0 4.0 0.00 0.00 0.00 43 1018.6
20260503041317 56 292 3.0 4.0 0.00 0.00 0.00 44 1018.7
20260503041217 55 292 3.0 4.0 0.00 0.00 0.00 45 1018.8
20260503041117 54 292 3.0 4.0 0.00 0.00 0.00 47 1018.8
20260503041017 54 292 3.0 4.0 0.00 0.00 0.00 47 1018.9
20260503040918 54 292 3.0 4.0 0.00 0.00 0.00 49 1019.0
20260503040817 53 292 2.0 6.0 0.00 0.00 0.00 49 1018.8
20260503040717 53 292 3.0 6.0 0.00 0.00 0.00 49 1018.7
20260503040617 53 292 3.0 6.0 0.00 0.00 0.00 49 1018.9
20260503040517 53 292 3.0 6.0 0.00 0.00 0.00 49 1018.8
20260503040417 53 292 3.0 6.0 0.00 0.00 0.00 49 1018.8
20260503040317 53 292 4.0 6.0 0.00 0.00 0.00 49 1019.0
20260503040217 53 292 4.0 6.0 0.00 0.00 0.00 49 1018.6
20260503040117 53 292 4.0 7.0 0.00 0.00 0.00 50 1018.8
20260503040018 53 292 4.0 7.0 0.00 0.00 0.00 49 1018.7
20260503035918 53 292 4.0 7.0 0.00 0.00 0.00 50 1018.5
20260503035817 53 292 4.0 7.0 0.00 0.00 0.00 50 1018.7
20260503035717 53 292 4.0 7.0 0.00 0.00 0.00 50 1018.8
20260503035617 53 292 4.0 7.0 0.00 0.00 0.00 49 1018.7
20260503035517 54 292 4.0 7.0 0.00 0.00 0.00 48 1018.5
20260503035417 54 292 4.0 7.0 0.00 0.00 0.00 49 1018.5
20260503035317 54 292 4.0 7.0 0.00 0.00 0.00 49 1018.9
20260503035217 53 292 4.0 8.0 0.00 0.00 0.00 49 1018.7
20260503035117 54 293 4.0 8.0 0.00 0.00 0.00 49 1018.9
20260503035017 54 294 4.0 8.0 0.00 0.00 0.00 48 1018.8
20260503034917 54 294 5.0 8.0 0.00 0.00 0.00 48 1018.8
20260503034818 54 294 6.0 8.0 0.00 0.00 0.00 48 1018.8
20260503034717 54 296 6.0 8.0 0.00 0.00 0.00 48 1018.8
20260503034617 54 297 5.0 8.0 0.00 0.00 0.00 48 1018.8
20260503034517 54 297 5.0 8.0 0.00 0.00 0.00 48 1018.6
20260503034418 53 297 6.0 8.0 0.00 0.00 0.00 49 1018.6
20260503034317 54 297 7.0 8.0 0.00 0.00 0.00 49 1018.8
20260503034217 54 298 7.0 8.0 0.00 0.00 0.00 48 1018.6
20260503034117 54 297 7.0 7.0 0.00 0.00 0.00 49 1018.7
20260503034017 54 296 6.0 7.0 0.00 0.00 0.00 48 1018.4
20260503033917 54 297 6.0 7.0 0.00 0.00 0.00 48 1018.7
20260503033818 54 296 6.0 7.0 0.00 0.00 0.00 48 1018.8
20260503033717 54 293 5.0 6.0 0.00 0.00 0.00 48 1018.6
20260503033617 54 292 5.0 6.0 0.00 0.00 0.00 48 1018.5
20260503033517 54 292 4.0 6.0 0.00 0.00 0.00 48 1018.5
20260503033418 54 292 4.0 4.0 0.00 0.00 0.00 48 1018.7
20260503033317 54 292 3.0 4.0 0.00 0.00 0.00 48 1018.7
20260503033217 54 292 3.0 4.0 0.00 0.00 0.00 49 1018.7
20260503033118 54 292 3.0 4.0 0.00 0.00 0.00 49 1018.7
20260503033018 54 292 3.0 4.0 0.00 0.00 0.00 49 1018.9
20260503032917 54 292 3.0 4.0 0.00 0.00 0.00 49 1018.6
20260503032817 54 292 4.0 4.0 0.00 0.00 0.00 49 1018.7
20260503032717 54 292 3.0 4.0 0.00 0.00 0.00 48 1018.4
20260503032617 54 292 3.0 4.0 0.00 0.00 0.00 48 1018.7
20260503032517 54 292 2.0 4.0 0.00 0.00 0.00 48 1018.6
20260503032417 54 292 3.0 4.0 0.00 0.00 0.00 48 1018.6
20260503032317 54 292 3.0 4.0 0.00 0.00 0.00 48 1018.6
20260503032217 54 292 3.0 4.0 0.00 0.00 0.00 48 1018.7
20260503032117 54 292 4.0 4.0 0.00 0.00 0.00 47 1018.8
20260503032017 54 292 4.0 4.0 0.00 0.00 0.00 47 1018.7
20260503031918 54 292 4.0 4.0 0.00 0.00 0.00 47 1018.7
20260503031817 54 292 2.0 4.0 0.00 0.00 0.00 47 1018.8
20260503031717 54 292 3.0 4.0 0.00 0.00 0.00 47 1018.7
20260503031617 54 292 3.0 4.0 0.00 0.00 0.00 47 1018.8
20260503031517 54 292 4.0 4.0 0.00 0.00 0.00 47 1018.7
20260503031417 54 292 3.0 4.0 0.00 0.00 0.00 47 1018.6
20260503031317 54 292 2.0 4.0 0.00 0.00 0.00 47 1018.9
20260503031217 54 292 3.0 4.0 0.00 0.00 0.00 48 1018.7
20260503031117 54 292 2.0 4.0 0.00 0.00 0.00 48 1018.7
20260503031017 54 292 2.0 4.0 0.00 0.00 0.00 48 1018.7
20260503030917 54 292 2.0 4.0 0.00 0.00 0.00 48 1018.8
20260503030817 54 292 3.0 4.0 0.00 0.00 0.00 47 1018.8
20260503030717 54 292 3.0 4.0 0.00 0.00 0.00 47 1018.7
20260503030617 54 292 2.0 4.0 0.00 0.00 0.00 47 1018.9
20260503030517 54 292 3.0 4.0 0.00 0.00 0.00 47 1018.8
20260503030417 54 292 3.0 4.0 0.00 0.00 0.00 47 1018.8
20260503030317 54 292 3.0 4.0 0.00 0.00 0.00 47 1018.9
20260503030217 54 292 3.0 4.0 0.00 0.00 0.00 47 1018.8
20260503030117 54 292 4.0 4.0 0.00 0.00 0.00 47 1018.7
20260503030018 54 292 4.0 4.0 0.00 0.00 0.00 47 1018.7
20260503025917 54 292 4.0 4.0 0.00 0.00 0.00 47 1018.6
20260503025817 54 292 3.0 4.0 0.00 0.00 0.00 47 1019.0
20260503025717 54 292 3.0 4.0 0.00 0.00 0.00 47 1018.8
20260503025617 54 292 3.0 4.0 0.00 0.00 0.00 47 1018.8
20260503025517 54 292 3.0 4.0 0.00 0.00 0.00 47 1019.0
20260503025417 54 292 4.0 4.0 0.00 0.00 0.00 47 1018.8
20260503025317 55 292 4.0 4.0 0.00 0.00 0.00 46 1018.9
20260503025217 55 293 4.0 4.0 0.00 0.00 0.00 46 1018.7
20260503025117 55 293 4.0 4.0 0.00 0.00 0.00 46 1018.8
20260503025017 55 293 4.0 4.0 0.00 0.00 0.00 46 1018.8
20260503024917 55 293 3.0 4.0 0.00 0.00 0.00 46 1018.9
20260503024817 55 292 4.0 4.0 0.00 0.00 0.00 46 1018.7
20260503024717 55 291 2.0 4.0 0.00 0.00 0.00 45 1018.9
20260503024617 55 291 2.0 4.0 0.00 0.00 0.00 45 1019.0
20260503024518 55 291 2.0 4.0 0.00 0.00 0.00 45 1018.9
20260503024417 55 291 2.0 4.0 0.00 0.00 0.00 45 1019.0
20260503024317 56 291 1.0 4.0 0.00 0.00 0.00 45 1019.0
20260503024217 56 289 1.0 4.0 0.00 0.00 0.00 44 1019.0
20260503024117 56 290 1.0 4.0 0.00 0.00 0.00 44 1018.9
20260503024017 56 290 2.0 4.0 0.00 0.00 0.00 44 1018.9
20260503023918 56 291 2.0 6.0 0.00 0.00 0.00 43 1018.9
20260503023817 56 295 2.0 6.0 0.00 0.00 0.00 43 1019.0
20260503023717 56 296 2.0 6.0 0.00 0.00 0.00 43 1019.1
20260503023617 56 296 2.0 6.0 0.00 0.00 0.00 43 1018.8
20260503023517 56 299 2.0 6.0 0.00 0.00 0.00 44 1018.8
20260503023417 56 299 3.0 6.0 0.00 0.00 0.00 44 1018.9
20260503023317 56 301 3.0 7.0 0.00 0.00 0.00 44 1018.9
20260503023217 56 304 4.0 7.0 0.00 0.00 0.00 44 1018.9
20260503023117 55 306 4.0 7.0 0.00 0.00 0.00 45 1019.0
20260503023017 55 306 5.0 7.0 0.00 0.00 0.00 45 1018.9
20260503022917 55 305 5.0 7.0 0.00 0.00 0.00 45 1019.0
20260503022817 55 304 4.0 7.0 0.00 0.00 0.00 45 1019.0
20260503022717 55 305 6.0 7.0 0.00 0.00 0.00 45 1019.0
20260503022617 55 305 5.0 7.0 0.00 0.00 0.00 45 1019.0
20260503022517 55 303 6.0 7.0 0.00 0.00 0.00 45 1019.0
20260503022417 55 303 6.0 7.0 0.00 0.00 0.00 46 1019.1
20260503022317 55 300 6.0 7.0 0.00 0.00 0.00 45 1019.1
20260503022217 55 296 5.0 6.0 0.00 0.00 0.00 45 1018.9
20260503022117 55 290 5.0 6.0 0.00 0.00 0.00 45 1019.0
20260503022017 55 287 4.0 6.0 0.00 0.00 0.00 45 1019.1
20260503021917 56 286 3.0 4.0 0.00 0.00 0.00 45 1019.1
20260503021817 56 286 2.0 2.0 0.00 0.00 0.00 45 1019.0
20260503021717 56 285 1.0 2.0 0.00 0.00 0.00 45 1019.0